Location: Barston
(52.3833°N, 1.6833°W)
Time: 13:26:23
(UTC+00:00)

Daily predictions for brighter satellites

Satellite Brightness Start Highest point End
(mag) Time Altitude Azimuth Time Altitude Azimuth Time Altitude Azimuth
Okean-O 2.6 17:24:48 10° SSE 17:29:12 70° ENE 17:33:38 10° N
Lacrosse 5 2.0 17:24:09 10° WNW 17:29:14 85° SSW 17:34:18 10° ESE
Unknown 3.7 17:25:10 10° W 17:29:20 85° N 17:33:30 10° E
Unknown 3.8 17:27:57 10° W 17:31:16 52° SSW 17:34:35 10° SE
Cosmos 1606 Rocket 3.5 17:27:33 10° S 17:31:55 82° E 17:36:16 10° NNE
Cosmos 1821 Rocket 4.2 17:26:22 10° NNW 17:32:30 80° W 17:38:40 10° S
Unknown 3.7 17:28:29 10° W 17:32:40 84° N 17:36:49 10° E
Cosmos 1605 Rocket 4.1 17:27:17 10° N 17:33:20 51° ENE 17:39:16 10° SSE
Cosmos 1934 Rocket 4.0 17:28:00 10° N 17:34:23 74° ENE 17:40:45 10° SSE
Unknown 3.7 17:30:12 10° W 17:34:23 84° N 17:38:32 10° E
Cosmos 1328 3.7 17:30:31 10° N 17:34:30 66° ENE 17:38:25 10° SSE
Cosmos 2058 4.4 17:32:11 10° NNE 17:35:06 18° ENE 17:38:00 10° ESE
Unknown 3.5 17:31:30 10° W 17:35:25 81° N 17:39:20 10° E
Unknown 3.7 17:31:48 10° W 17:35:57 84° N 17:40:07 10° E
Unknown 3.7 17:33:24 10° W 17:37:33 84° N 17:41:44 10° E
Cosmos 1242 Rocket 2.7 17:34:21 10° NNW 17:38:05 85° WSW 17:41:45 10° S
Cosmos 1300 4.4 17:37:03 10° ESE 17:38:53 13° E 17:40:44 10° NE
Unknown 3.7 17:35:07 10° W 17:39:17 83° N 17:43:27 10° E
CORIOLIS 4.3 17:34:16 10° SSE 17:39:37 81° WSW 17:45:03 10° NNW
Unknown 3.6 17:36:37 10° W 17:40:46 83° N 17:44:55 10° E
Cosmos 2227 Rocket 4.4 17:38:49 10° NNW 17:41:03 12° N 17:43:17 10° NNE
FALCON 9 DEB 3.9 17:40:37 10° W 17:44:01 51° SSW 17:47:24 10° SE
Unknown 3.6 17:39:55 10° W 17:44:05 83° N 17:48:05 11° E
Unknown 3.6 17:41:35 10° W 17:45:44 82° N 17:49:41 11° E
Cosmos 2297 Rocket 4.4 17:43:48 10° NNW 17:45:52 12° N 17:47:57 10° NNE
H-2A R/B 3.3 17:43:08 10° S 17:47:02 65° WSW 17:50:58 10° NNW
ATLAS 3B R/B 4.2 17:44:24 10° SE 17:47:24 13° ESE 17:50:13 10° E
Unknown 3.6 17:43:27 10° W 17:47:38 82° N 17:51:29 12° E
Cosmos 2082 Rocket 2.3 17:42:31 10° NNW 17:48:14 64° NE 17:53:52 10° SE
Cosmos 2084 4.2 17:44:12 10° WSW 17:48:37 54° NW 17:52:59 10° NE
CZ-2D R/B 4.4 17:45:43 10° ESE 17:48:51 24° ENE 17:52:01 10° N
Unknown 3.6 17:44:57 10° W 17:49:07 82° N 17:52:55 12° E
CSL-04 Debris 4.4 17:44:43 10° SE 17:49:59 51° ENE 17:55:19 10° N
Nadezhda 3 Rocket 4.3 17:44:20 10° SSW 17:50:39 76° WNW 17:57:04 10° N
Unknown 3.6 17:46:35 10° W 17:50:44 82° N 17:54:29 13° E
NOAA 12 4.2 17:46:48 10° SSE 17:52:07 86° WSW 17:57:29 10° NNW
Unknown 3.6 17:49:07 10° W 17:53:12 80° N 17:56:45 13° E
Unknown 3.6 17:49:56 10° W 17:54:06 81° N 17:57:42 14° E
CENTAUR R/B 4.0 17:50:56 10° SE 17:54:13 15° ESE 17:56:59 12° ENE
Cosmos 1939 Rocket 3.9 17:50:59 10° ESE 17:54:22 26° ENE 17:57:47 10° N
Unknown 3.6 17:51:33 10° W 17:55:43 81° N 17:59:15 14° E
Cosmos 1844 Rocket 3.4 17:51:51 10° SW 17:57:24 55° NW 18:02:57 10° NNE
Unknown 3.6 17:53:14 10° W 17:57:25 81° N 18:00:52 15° E
Falcon 9 debris 4.3 17:54:13 10° W 17:57:29 40° SSW 18:00:44 10° SE
Cosmos 2228 3.5 17:53:19 10° SSW 17:57:39 66° WNW 18:01:58 10° N
BREEZE-M DEB (TANK) 4.3 17:54:49 10° SSW 17:57:56 17° SSE 17:59:43 11° ESE
Unknown 3.6 17:54:55 10° W 17:59:05 81° N 18:02:29 15° E
SKYMED 2 3.8 17:57:01 10° NNE 18:01:14 45° E 18:05:24 10° S
Unknown 4.1 17:57:56 10° W 18:01:21 46° SSW 18:04:44 10° SE
Unknown 3.6 17:58:17 10° W 18:02:26 81° N 18:05:42 16° E
Unknown 3.6 17:58:45 10° W 18:02:52 80° N 18:06:04 16° E
Unknown 3.6 17:59:15 10° W 18:03:25 81° N 18:06:38 16° E
Envisat 3.1 17:58:58 10° SSE 18:04:03 87° WSW 18:09:11 10° NNW
Cosmos 921 Rocket 3.6 17:59:44 10° SW 18:04:10 62° WNW 18:08:35 10° NNE
Unknown 3.6 18:00:02 10° W 18:04:11 80° N 18:07:23 17° E
YAOGAN 1 2.6 18:00:02 10° SSE 18:04:17 57° ENE 18:08:32 10° N
Unknown 3.6 18:01:49 10° W 18:05:58 80° N 18:09:06 17° E
Cosmos 1703 3.8 18:02:53 10° NNW 18:06:48 64° W 18:10:40 10° S
Cosmos 1356 3.6 18:05:17 10° SSW 18:08:43 76° WNW 18:12:11 10° N
Unknown 3.6 18:04:57 10° W 18:09:06 80° N 18:12:06 18° E
Cosmos 1898 Rocket 3.9 18:04:30 10° NNW 18:09:31 42° NE 18:14:32 10° SE
Unknown 3.5 18:06:23 10° WNW 18:10:07 74° SSW 18:12:58 16° ESE
Cosmos 292 Rocket 3.8 18:06:01 10° SSW 18:10:47 82° WNW 18:15:35 10° NNE
COBE Rocket 3.9 18:05:42 10° NNE 18:10:54 77° ESE 18:15:57 10° S
Cosmos 1726 Rocket 4.5 18:07:07 10° SSW 18:11:24 52° WNW 18:15:40 10° N
Unknown 3.6 18:08:16 10° W 18:12:25 81° N 18:15:17 20° E
BREEZE M DEB (TANK) 3.7 18:10:36 10° WSW 18:12:38 24° SSW 18:16:17 10° SE
H-2A R/B 3.5 18:11:50 16° E 18:13:56 20° NE 18:17:46 10° N
Unknown 3.6 18:09:54 10° W 18:14:03 81° N 18:16:51 20° E
Cosmos 1726 2.4 18:11:18 10° SSW 18:14:56 67° WNW 18:18:35 10° N
ATLAS 5 CENTAUR R/B 3.0 18:11:00 10° W 18:15:13 36° NNW 18:20:02 10° NE
Unknown 3.6 18:11:35 10° W 18:15:45 81° N 18:18:28 21° E
Unknown 3.6 18:13:12 10° W 18:17:23 81° N 18:20:02 22° E
Cosmos 2100 Rocket 4.2 18:13:18 10° N 18:19:18 48° ENE 18:25:13 10° SE
USA 116 3.7 18:18:53 10° NNE 18:21:57 39° E 18:25:15 10° S
USA 238 DEB 3.9 18:16:27 10° SSW 18:22:52 51° ESE 18:29:24 11° NE
USA 238 3.9 18:16:34 10° SSW 18:22:59 50° ESE 18:29:27 11° NE
Unknown 3.6 18:19:54 10° W 18:24:03 81° N 18:26:27 25° E
Cosmos 1461 4.5 18:20:28 10° NW 18:24:13 35° WSW 18:28:02 10° S
Cosmos 1908 3.3 18:21:32 10° SSW 18:25:26 79° WNW 18:29:20 10° N
Unknown 3.6 18:21:35 10° W 18:25:45 82° N 18:28:04 25° E
Abrixas rocket 3.1 18:23:11 10° SW 18:26:01 34° S 18:27:03 26° SE
CZ-4 R/B 1.8 18:23:00 10° S 18:27:12 71° WSW 18:31:27 10° NNW
Unknown 3.6 18:23:13 10° W 18:27:24 82° N 18:29:39 26° E
Unknown 3.6 18:24:53 10° W 18:29:02 82° N 18:31:13 27° E
Unknown 3.6 18:26:31 10° W 18:30:41 82° N 18:32:48 28° E
ATLAS CENTAUR R/B 3.0 18:27:38 10° NW 18:31:24 24° NNE 18:33:06 19° NE
Cosmos 2278 Rocket 2.2 18:26:13 10° SSW 18:31:55 84° ESE 18:37:39 10° NNE
Unknown 3.6 18:29:52 10° W 18:34:02 83° N 18:36:01 30° E
Cosmos 1153 Rocket 4.4 18:28:39 10° N 18:34:50 88° ENE 18:41:00 10° S
Cosmos 2016 Rocket 4.3 18:29:13 10° N 18:35:11 43° ENE 18:41:11 10° SE
Starlink (trailer) 3.6 18:31:30 10° W 18:35:41 83° N 18:37:35 31° E
Cosmos 2297 4.2 18:32:02 10° S 18:37:11 36° ESE 18:41:31 14° NE
Unknown 3.6 18:33:13 10° W 18:37:23 83° N 18:39:13 32° E
Unknown 3.6 18:34:52 10° W 18:39:02 84° N 18:40:49 33° E
SJ 16-02 1.7 18:35:10 10° NNW 18:39:23 43° ENE 18:41:02 30° ESE
Cosmos 2058 Rocket 4.4 18:36:05 10° SW 18:40:13 41° WNW 18:44:23 10° N
CSL-04 Rocket 3.9 18:34:57 10° S 18:40:27 73° WSW 18:45:56 10° NNW
Cosmos 2084 Rocket 4.3 18:36:14 10° NW 18:40:33 51° SW 18:44:45 10° SSE
SJ-6B 4.2 18:42:08 21° NE 18:42:08 21° NE 18:44:11 10° N
YAOGAN 6 3.7 18:38:46 10° S 18:42:17 46° W 18:45:48 10° NNW
Unknown 3.5 18:39:53 10° W 18:44:03 85° N 18:45:38 37° E
NOSS 3-2 (A) 3.5 18:39:34 10° SSW 18:45:16 56° SE 18:50:14 17° NE
Cosmos 1825 4.4 18:43:01 10° NNE 18:43:31 12° NNE 18:43:31 12° NNE
Unknown 3.5 18:41:31 10° W 18:45:41 85° N 18:47:11 38° E
Ariane Rocket 2.9 18:41:37 10° SSE 18:46:41 71° ENE 18:51:48 10° NNW
Unknown 3.5 18:43:14 10° W 18:47:24 86° NNE 18:48:50 40° E
ARGOS 4.0 18:46:32 28° E 18:47:39 31° ENE 18:52:21 10° N
Unknown 3.6 18:44:43 10° WNW 18:48:32 64° SSW 18:49:50 37° SE
Unknown 3.5 18:44:48 10° W 18:49:00 86° N 18:50:24 41° E
COSMO-SKYMED 1 3.0 18:45:02 10° N 18:49:22 66° WNW 18:53:40 10° SSW
EO 1 Delta rocket 4.4 18:45:40 10° S 18:50:18 65° W 18:55:39 10° NNW
Cosmos 468 Rocket 4.5 18:45:45 10° SSE 18:50:30 36° ESE 18:52:10 29° ENE
Unknown 3.5 18:46:31 10° W 18:50:41 87° NNE 18:51:59 43° E
HJ-1C 3.3 18:50:51 52° ESE 18:51:18 59° ENE 18:54:38 10° N
Cosmos 1892 3.0 18:48:44 10° N 18:52:13 42° ENE 18:52:13 42° ENE
Unknown 3.5 18:48:16 10° W 18:52:26 88° N 18:53:41 45° E
Unknown 3.5 18:51:36 10° W 18:55:46 89° NNE 18:56:52 48° E
Unknown 3.5 18:51:36 10° W 18:55:46 89° N 18:56:52 48° E
Unknown 3.5 18:53:09 10° W 18:57:19 89° N 18:58:22 50° E
Cosmos 990 Rocket 3.9 18:53:15 10° NNW 18:58:30 83° ENE 19:02:11 20° SSE
Cosmos 1833 Rocket 4.3 18:53:50 10° NW 18:58:50 34° WSW 19:03:49 10° S
Cosmos 1937 Rocket 3.4 18:54:34 10° NNW 18:59:44 69° ENE 19:02:14 30° SE
ADEOS Rocket 4.0 18:53:38 10° NNE 19:00:26 33° E 19:03:33 24° SE
NOAA 11 4.2 18:55:04 10° SSE 19:00:30 80° WSW 19:05:59 10° NNW
Unknown 3.5 18:56:25 10° W 19:00:34 89° N 19:01:29 54° E
Cosmos 858 Rocket 4.4 18:56:14 10° NNW 19:01:27 74° ENE 19:04:10 29° SE
Unknown 3.5 18:59:49 10° W 19:03:59 88° S 19:04:46 58° ESE
Unknown 3.5 19:01:29 10° W 19:05:39 88° SSW 19:06:22 60° ESE
Cosmos 1766 Rocket 3.5 19:01:26 10° N 19:05:44 58° ENE 19:06:20 52° ESE
Cosmos 1459 Rocket 3.9 18:59:49 10° N 19:06:06 88° E 19:12:25 10° S
Unknown 3.5 19:03:09 10° W 19:07:19 87° SSW 19:07:58 63° ESE
Unknown 3.5 19:04:50 10° W 19:09:00 86° SSW 19:09:35 65° ESE
Cosmos 1076 Rocket 4.4 19:06:22 10° NNW 19:10:37 50° W 19:14:48 10° S
Lacrosse 5 3.8 19:07:35 10° WNW 19:11:42 25° SW 19:15:49 10° S
NOSS 3-2 (C) 3.5 19:06:01 10° SSW 19:11:44 56° SE 19:14:29 33° ENE
Unknown 3.4 19:08:10 10° WNW 19:12:19 85° SSW 19:12:47 70° ESE
Cosmos 2058 3.4 19:08:16 10° NNW 19:12:28 62° W 19:16:36 10° S
CZ-2C R/B 3.9 19:13:11 36° ENE 19:13:20 36° ENE 19:18:29 10° N
Cosmos 1238 Rocket 4.5 19:07:29 10° N 19:13:36 37° ENE 19:14:04 37° ENE
Cosmos 2061 Rocket 3.9 19:07:41 10° N 19:13:58 77° ENE 19:19:54 11° SSE
Cosmos 1300 3.0 19:10:14 10° SSW 19:14:01 67° WNW 19:17:51 10° N
Unknown 3.7 19:10:11 10° WNW 19:14:02 56° SSW 19:14:22 53° S
Unknown 3.4 19:09:53 10° WNW 19:14:03 83° SSW 19:14:26 72° SE
Unknown 3.4 19:11:27 10° WNW 19:15:37 83° SSW 19:15:56 74° SE
Meteor 2-3 Rocket 4.4 19:10:39 10° N 19:15:45 36° ENE 19:15:45 36° ENE
Cosmos 1408 Rocket 4.0 19:12:03 10° N 19:15:24 42° NE 19:15:24 42° NE
Unknown 3.4 19:13:04 10° WNW 19:17:14 83° SSW 19:17:29 77° SE
Unknown 3.5 19:14:47 10° WNW 19:18:58 82° SSW 19:19:09 78° SSE
Okean 3 Rocket 3.6 19:14:52 10° NNW 19:19:27 83° WSW 19:21:39 30° S
Unknown 3.5 19:16:17 10° WNW 19:20:27 83° SSW 19:20:34 81° SSE
Cosmos 372 Rocket 4.2 19:17:01 10° NNW 19:21:58 47° NE 19:21:58 47° NE
SL-27 R/B 3.6 19:19:02 10° NNW 19:21:06 35° NNW 19:21:06 35° NNW
MOS 1 4.2 19:19:17 19° SSE 19:23:30 88° WSW 19:29:12 10° NNW
Unknown 3.5 19:19:35 10° WNW 19:23:44 81° SSW 19:23:44 81° SSW
Unknown 3.5 19:21:14 10° WNW 19:25:19 80° SW 19:25:19 80° SW
Cosmos 1763 Rocket 4.0 19:21:33 10° S 19:25:17 41° SSE 19:25:17 41° SSE
Cosmos 2298 Rocket 4.0 19:21:40 10° NNW 19:26:56 59° ENE 19:27:15 58° ENE
Unknown 3.6 19:23:07 10° WNW 19:27:08 76° SW 19:27:08 76° SW
Resurs 01 Rocket 3.3 19:29:47 21° NNE 19:29:47 21° NNE 19:31:38 10° N
Cosmos 2227 Rocket 4.2 19:24:46 10° NNW 19:27:47 14° NNE 19:28:51 14° NNE
SJ-11-01 4.2 19:27:11 52° SSE 19:28:21 90° ESE 19:33:03 10° NNW
Unknown 3.6 19:24:37 10° WNW 19:28:34 76° SW 19:28:34 76° SW
Cosmos 1939 Rocket 4.2 19:25:21 10° SSW 19:29:08 39° W 19:33:01 10° NNW
Cosmos 2151 3.0 19:24:58 10° NNW 19:29:18 82° W 19:29:50 67° SSW
Unknown 3.7 19:26:15 10° WNW 19:30:08 73° WSW 19:30:08 73° WSW
Cosmos 2082 Rocket 4.1 19:27:09 10° NW 19:31:56 28° WSW 19:36:41 10° SSW
Unknown 3.9 19:28:23 10° WNW 19:32:02 60° SW 19:32:02 60° SW
Cosmos 2297 Rocket 4.1 19:29:23 10° NNW 19:32:34 15° NNE 19:33:19 15° NNE
Unknown 3.8 19:29:35 10° WNW 19:33:21 68° WSW 19:33:21 68° WSW
Unknown 3.9 19:31:12 10° WNW 19:34:54 66° WSW 19:34:54 66° WSW
Cosmos 2173 Rocket 4.5 19:29:30 10° NNW 19:35:38 60° W 19:41:41 10° S
ATLAS 3B R/B 2.6 19:30:12 10° SSW 19:36:44 58° SE 19:37:31 54° E
Unknown 3.9 19:32:54 10° WNW 19:36:31 63° WSW 19:36:31 63° WSW
SPOT 3 Rocket 3.4 19:36:38 69° SE 19:37:13 78° ENE 19:42:27 10° NNW
Unknown 4.0 19:34:34 10° WNW 19:38:08 61° WSW 19:38:08 61° WSW
Cosmos 1864 Rocket 4.4 19:35:26 10° N 19:41:38 89° W 19:44:33 34° S
Unknown 4.2 19:37:56 10° WNW 19:41:21 56° WSW 19:41:21 56° WSW
Unknown 4.2 19:38:13 10° WNW 19:41:33 53° WSW 19:41:33 53° WSW
Unknown 4.2 19:38:54 10° WNW 19:42:17 55° WSW 19:42:17 55° WSW
CENTAUR R/B 2.5 19:37:18 10° SSW 19:43:19 65° SE 19:44:14 58° E
Unknown 4.3 19:39:40 10° WNW 19:43:01 53° WSW 19:43:01 53° WSW
Unknown 4.3 19:41:27 10° WNW 19:44:45 51° WSW 19:44:45 51° WSW
Cosmos 44 3.4 19:42:38 10° SW 19:46:50 66° SW 19:46:50 66° SW
Unknown 4.5 19:44:35 10° WNW 19:47:45 48° W 19:47:45 48° W
Cosmos 2123 Rocket 3.8 19:46:20 10° S 19:52:37 82° E 19:58:54 10° NNE
H-2A R/B 2.0 19:52:28 84° SSE 19:52:39 89° ENE 19:58:09 10° NNW
Cosmos 2233 Rocket 3.8 19:50:37 10° N 19:56:58 79° E 19:57:26 74° SE
Cosmos 1725 Rocket 4.2 19:53:02 10° NNW 19:59:17 71° W 20:02:16 33° S
ATLAS 5 CENTAUR R/B 3.6 19:57:10 10° NW 20:01:14 25° N 20:01:57 24° NNE
ATLAS CENTAUR R/B 3.0 20:06:37 10° NW 20:09:18 34° NNW 20:09:18 34° NNW
USA 238 DEB 4.2 20:07:10 10° WSW 20:13:51 57° NNW 20:16:51 34° NNE
USA 238 4.1 20:07:16 10° WSW 20:13:56 58° NNW 20:16:55 34° NNE
Cosmos 1125 Rocket 4.4 20:10:41 10° NNW 20:14:16 43° N 20:14:16 43° N
Cosmos 2278 Rocket 4.1 20:11:55 10° W 20:16:42 27° NW 20:21:30 10° NNE
SJ 16-02 3.2 20:14:07 10° NW 20:17:48 27° W 20:18:04 26° WSW
Cosmos 2297 4.4 20:15:38 10° SW 20:21:12 52° NW 20:23:31 33° N
ARGOS 3.8 20:28:03 54° W 20:28:03 54° W 20:33:02 10° NNW
NOSS 3-2 (A) 4.2 20:30:21 10° WSW 20:36:18 51° NNW 20:37:38 44° N
ADEOS Rocket 3.7 20:38:49 10° NNE 20:46:28 69° WNW 20:50:26 29° SW
CZ-2C R/B 4.3 20:54:15 44° WNW 20:54:15 44° WNW 20:58:38 10° NNW
NOSS 3-2 (C) 4.3 20:56:50 10° WSW 21:01:59 48° NW 21:01:59 48° NW
Resurs 01 Rocket 4.4 21:07:21 16° NW 21:07:21 16° NW 21:08:19 10° NNW
Cosmos 2227 Rocket 4.2 21:08:29 10° NNW 21:10:39 21° N 21:10:39 21° N
Cosmos 2297 Rocket 4.2 21:13:03 10° NNW 21:15:06 21° N 21:15:06 21° N
ATLAS 3B R/B 4.0 21:21:07 10° WSW 21:24:50 32° W 21:24:50 32° W
CENTAUR R/B 4.0 21:28:05 10° WSW 21:31:29 31° W 21:31:29 31° W
